TimeMDT,TemperatureF,Dew PointF,Humidity,Sea Level PressureIn,VisibilityMPH,Wind Direction,Wind SpeedMPH,Gust SpeedMPH,PrecipitationIn,Events,Conditions,WindDirDegrees,DateUTC
12:49 AM,41.0,35.6,81,30.01,10.0,NNE,23.0,31.1,0.00,Rain,Light Rain,30,2013-05-01 06:49:00
12:53 AM,41.0,36.0,82,30.00,10.0,NNE,21.9,31.1,0.00,Rain,Light Rain,30,2013-05-01 06:53:00
1:01 AM,39.2,35.6,87,30.02,10.0,NNE,20.7,27.6,0.01,Rain,Light Rain,30,2013-05-01 07:01:00
1:08 AM,39.2,35.6,87,30.03,10.0,NE,17.3,26.5,0.01,Rain-Thunderstorm,Light Rain,40,2013-05-01 07:08:00
1:39 AM,39.2,35.6,87,30.06,10.0,NNE,23.0,28.8,0.05,Rain,Light Rain,30,2013-05-01 07:39:00
1:53 AM,37.9,35.1,89,30.04,10.0,NNE,20.7,-,0.05,,Overcast,30,2013-05-01 07:53:00
2:22 AM,37.4,35.6,93,30.05,10.0,NE,20.7,28.8,0.00,Rain,Light Rain,40,2013-05-01 08:22:00
2:31 AM,37.4,35.6,93,30.07,10.0,NNE,19.6,26.5,0.00,Rain,Light Rain,30,2013-05-01 08:31:00
2:39 AM,37.4,35.6,93,30.08,10.0,NNE,18.4,-,0.00,,Overcast,20,2013-05-01 08:39:00
2:53 AM,37.0,35.1,93,30.07,10.0,NE,19.6,26.5,0.00,,Overcast,40,2013-05-01 08:53:00
3:53 AM,35.6,33.8,93,30.12,7.0,NNE,17.3,26.5,N/A,,Overcast,20,2013-05-01 09:53:00
4:53 AM,35.6,33.8,93,30.13,5.0,NNE,18.4,25.3,N/A,,Overcast,30,2013-05-01 10:53:00
5:53 AM,35.1,33.1,92,30.19,10.0,NNE,23.0,32.2,0.01,,Overcast,30,2013-05-01 11:53:00
6:09 AM,35.6,32.0,87,30.19,10.0,NNE,23.0,31.1,N/A,,Overcast,30,2013-05-01 12:09:00
6:37 AM,35.6,32.0,87,30.21,5.0,NE,25.3,33.4,0.00,,Overcast,40,2013-05-01 12:37:00
6:53 AM,33.8,32.0,93,30.21,5.0,NE,20.7,28.8,N/A,,Overcast,40,2013-05-01 12:53:00
7:53 AM,34.0,32.0,92,30.29,4.0,NNE,21.9,26.5,0.00,,Overcast,20,2013-05-01 13:53:00
8:17 AM,33.8,32.0,93,30.28,2.0,North,20.7,25.3,0.01,Snow,Light Snow,10,2013-05-01 14:17:00
8:24 AM,33.8,32.0,93,30.28,2.5,NNE,17.3,-,0.01,Snow,Light Snow,20,2013-05-01 14:24:00
8:36 AM,33.8,32.0,93,30.28,3.0,NNE,16.1,26.5,0.01,,Overcast,20,2013-05-01 14:36:00
8:53 AM,33.8,30.2,87,30.28,3.0,North,19.6,-,N/A,,Overcast,10,2013-05-01 14:53:00
9:00 AM,33.8,30.2,87,30.29,4.0,North,21.9,-,0.00,,Overcast,10,2013-05-01 15:00:00
9:27 AM,33.8,30.2,87,30.29,2.5,NNE,23.0,29.9,0.00,Snow,Light Snow,20,2013-05-01 15:27:00
9:34 AM,33.8,30.2,87,30.29,2.0,NNE,25.3,31.1,0.00,Snow,Light Snow,20,2013-05-01 15:34:00
9:37 AM,33.8,30.2,87,30.29,2.0,NNE,25.3,31.1,0.00,Snow,Light Snow,20,2013-05-01 15:37:00
9:44 AM,33.8,30.2,87,30.29,3.0,NNE,23.0,28.8,0.00,Snow,Light Snow,20,2013-05-01 15:44:00
9:53 AM,33.1,30.9,92,30.34,4.0,NNE,27.6,32.2,0.01,,Overcast,20,2013-05-01 15:53:00
10:02 AM,33.8,30.2,87,30.29,5.0,NNE,20.7,32.2,0.00,,Overcast,20,2013-05-01 16:02:00
10:10 AM,33.8,30.2,87,30.30,6.0,NNE,21.9,32.2,0.00,,Overcast,20,2013-05-01 16:10:00
10:53 AM,32.0,28.9,88,30.38,4.0,NNE,21.9,31.1,0.00,Rain,Light Freezing Rain,20,2013-05-01 16:53:00
11:23 AM,32.0,28.4,87,30.33,6.0,North,23.0,29.9,0.00,,Overcast,10,2013-05-01 17:23:00
11:38 AM,32.0,28.4,87,30.34,9.0,NNE,23.0,29.9,0.00,,Overcast,20,2013-05-01 17:38:00
11:53 AM,32.0,28.9,88,30.41,4.0,North,20.7,28.8,0.00,,Overcast,10,2013-05-01 17:53:00
12:08 PM,32.0,28.4,87,30.35,2.0,NNE,17.3,32.2,0.00,Snow,Light Snow,20,2013-05-01 18:08:00
12:12 PM,32.0,28.4,87,30.35,1.8,NNE,20.7,26.5,0.00,Snow,Light Snow,20,2013-05-01 18:12:00
12:30 PM,30.2,28.4,93,30.36,2.0,North,26.5,31.1,0.00,Snow,Light Snow,10,2013-05-01 18:30:00
12:40 PM,30.2,28.4,93,30.36,5.0,NNE,24.2,33.4,0.00,,Overcast,20,2013-05-01 18:40:00
12:53 PM,30.9,27.0,85,30.43,10.0,NNE,25.3,31.1,0.00,,Overcast,20,2013-05-01 18:53:00
1:30 PM,30.2,28.4,93,30.38,4.0,North,19.6,-,0.00,,Overcast,10,2013-05-01 19:30:00
1:53 PM,30.9,27.0,85,30.48,4.0,NNE,24.2,27.6,0.00,,Overcast,20,2013-05-01 19:53:00
2:01 PM,30.2,26.6,86,30.40,4.0,NNE,23.0,28.8,0.00,,Overcast,20,2013-05-01 20:01:00
2:14 PM,30.2,26.6,86,30.40,2.0,NNE,24.2,29.9,0.00,Snow,Light Snow,20,2013-05-01 20:14:00
2:23 PM,30.2,26.6,86,30.41,1.5,North,20.7,29.9,0.00,Snow,Light Snow,10,2013-05-01 20:23:00
2:40 PM,30.2,28.4,93,30.41,0.8,North,16.1,-,0.00,Snow,Light Snow,10,2013-05-01 20:40:00
2:53 PM,30.0,28.0,92,30.49,1.0,North,20.7,-,0.00,Snow,Light Snow,360,2013-05-01 20:53:00
3:33 PM,30.2,28.4,93,30.42,1.2,North,19.6,-,0.01,Snow,Light Snow,360,2013-05-01 21:33:00
3:44 PM,30.2,28.4,93,30.41,1.0,North,18.4,-,0.01,Snow,Light Snow,360,2013-05-01 21:44:00
3:53 PM,30.9,28.0,89,30.49,1.5,North,24.2,29.9,0.01,Snow,Light Snow,360,2013-05-01 21:53:00
4:07 PM,30.2,28.4,93,30.41,1.8,North,23.0,29.9,0.01,Snow,Light Snow,10,2013-05-01 22:07:00
4:21 PM,32.0,28.4,87,30.42,1.5,North,21.9,28.8,0.01,Snow,Light Snow,10,2013-05-01 22:21:00
4:33 PM,30.2,28.4,93,30.41,1.5,North,19.6,-,0.01,Snow,Light Snow,10,2013-05-01 22:33:00
4:50 PM,30.2,28.4,93,30.44,0.5,North,19.6,28.8,0.01,Fog-Snow,Light Snow,10,2013-05-01 22:50:00
4:53 PM,30.9,28.9,92,30.53,0.5,North,19.6,25.3,0.01,Fog-Snow,Light Snow,10,2013-05-01 22:53:00
5:09 PM,30.2,28.4,93,30.44,0.5,North,20.7,29.9,0.01,Fog-Snow,Light Snow,10,2013-05-01 23:09:00
5:19 PM,30.2,28.4,93,30.46,1.0,North,25.3,29.9,0.01,Snow,Light Snow,10,2013-05-01 23:19:00
5:34 PM,30.2,28.4,93,30.45,0.8,North,24.2,31.1,0.01,Snow,Light Snow,10,2013-05-01 23:34:00
5:53 PM,30.0,28.0,92,30.56,0.5,North,18.4,-,0.02,Fog-Snow,Light Snow,360,2013-05-01 23:53:00
6:10 PM,30.2,28.4,93,30.48,0.2,North,17.3,-,0.00,Fog-Snow,Snow,360,2013-05-02 00:10:00
6:53 PM,30.0,28.9,96,30.60,0.2,North,11.5,-,0.03,Fog-Snow,Snow,360,2013-05-02 00:53:00
7:03 PM,30.2,28.4,93,30.50,0.5,North,12.7,-,0.01,Fog-Snow,Snow,10,2013-05-02 01:03:00
7:25 PM,30.2,28.4,93,30.50,0.5,North,12.7,-,0.03,Fog-Snow,Snow,360,2013-05-02 01:25:00
7:53 PM,30.0,28.9,96,30.61,1.0,North,10.4,-,0.05,Snow,Light Snow,350,2013-05-02 01:53:00
8:04 PM,30.2,28.4,93,30.52,1.2,North,9.2,-,0.01,Snow,Light Snow,350,2013-05-02 02:04:00
8:44 PM,30.2,28.4,93,30.54,1.8,North,5.8,-,0.03,Snow,Light Snow,350,2013-05-02 02:44:00
8:53 PM,30.0,28.9,96,30.63,2.5,North,4.6,-,0.04,Snow,Light Snow,350,2013-05-02 02:53:00
9:11 PM,30.2,28.4,93,30.55,3.0,Calm,Calm,-,0.00,Snow,Light Snow,0,2013-05-02 03:11:00
9:20 PM,30.2,28.4,93,30.55,6.0,NW,4.6,-,0.00,Snow,Light Snow,320,2013-05-02 03:20:00
9:53 PM,30.0,28.0,92,30.65,10.0,NW,3.5,-,0.00,,Overcast,310,2013-05-02 03:53:00
10:53 PM,30.0,28.0,92,30.65,10.0,West,5.8,-,N/A,,Overcast,270,2013-05-02 04:53:00
11:53 PM,30.0,28.0,92,30.66,10.0,Calm,Calm,-,N/A,,Overcast,0,2013-05-02 05:53:00